カタログに戻る

BREEZE-M DEB

TANK

運用中HEO
NORAD 28477·DEBRIS·🇷🇺 Russia

打ち上げ Oct 14, 2004 から Baikonur Cosmodrome

Loading…

次のパス (今後24時間)

TLE

最新Source: Space-Track

元期: Sep 13, 2026, 05:55 UTC

1 28477U 04041C   26256.24665755  .00000028  00000-0  00000+0 0  9997
2 28477  47.7481  95.3527 7034094 133.1743 312.5178  2.23820875179002

AllMySatでBREEZE-M DEBをリアルタイム追跡

Download on the App Store